Retour au catalogue

STARLINK-32599

ActifCommunicationsVLEO
NORAD 62048·PAYLOAD·🇺🇸 United States

Lancé Nov 21, 2024 depuis Cape Canaveral Space Force Station

Loading…

Prochains Passages (prochaines 24 heures)

TLE

FraisSource: CelesTrak SupGP

Époque: Sep 14, 2026, 22:24 UTC

1 62048C 24216S   26257.93381944  .00034017  00000+0  12323-2 0  2572
2 62048  42.9998 274.8673 0001510 264.0521  98.5994 15.27556349    19

Suivez STARLINK-32599 en temps réel avec AllMySat

Download on the App Store